Location: Unspecified
(0.0000°N, 0.0000°E)
Time: 16:29:53
(UTC+00:00)

STARLINK 1023 - Pass Details

Date: 12 December 2019
Orbit: 345 x 354 km, 53.0° (Epoch: 17 January)

Event Time Altitude Azimuth Distance (km) Brightness Sun altitude
Rises 19:45:23 0° 224° (SW) 2,258 7.9 -25.5°
Reaches altitude 10° 19:47:29 10° 231° (SW) 1,409 6.7 -26.0°
Enters shadow 19:48:58 23° 245° (WSW) 865 5.3 -26.3°
